Location: Winthrop
(48.4780°N, 120.1850°W)
Time: 07:02:36
(UTC-08:00)

Courier 1B Rocket - All Passes

Search period start: 27 January 2023 00:00
Search period end: 06 February 2023 00:00
Orbit: 920 x 1202 km, 28.3° (Epoch: 26 January)

Date Brightness Start Highest point End Pass type
(mag) Time Alt. Az. Time Alt. Az. Time Alt. Az.
27 Jan - 19:57:05 10° S 19:58:30 11° S 19:59:57 10° SSE visible
27 Jan - 21:48:00 10° SSW 21:50:32 12° S 21:53:08 10° SSE night (unlit)
28 Jan - 20:47:24 10° SSW 20:49:52 12° S 20:52:21 10° SSE visible
29 Jan - 19:47:15 10° SSW 19:49:12 11° S 19:51:11 10° SSE visible
29 Jan - 21:40:00 10° SSW 21:41:14 11° S 21:42:28 10° S visible
30 Jan - 18:48:21 10° S 18:48:35 10° S 18:48:49 10° SSE visible
30 Jan - 20:38:44 10° SSW 20:40:34 11° S 20:42:26 10° SSE visible
31 Jan - 19:38:03 10° SSW 19:39:56 11° S 19:41:50 10° SSE visible
01 Feb - 18:37:51 10° S 18:39:18 11° S 18:40:46 10° SSE visible
02 Feb - 19:29:33 10° SSW 19:30:40 10° S 19:31:46 10° S visible
03 Feb - 18:28:35 10° SSW 18:30:03 11° S 18:31:31 10° SSE visible
04 Feb - 17:28:10 10° S 17:29:26 11° S 17:30:42 10° SSE daylight
05 Feb - 18:20:22 10° S 18:20:47 10° S 18:21:13 10° S visible
